Weather History for London, ON

Change the Weather History Date:

Tuesday, February 26, 2013

  Actual Average Record
Temperature  
Mean Temperature 30 °F -  
Max Temperature 37 °F 32 °F 44 °F (1998)
Min Temperature 23 °F 18 °F -9 °F (2003)
Degree Days  
Heating Degree Days 35    
Moisture  
Dew Point 26 °F    
Average Humidity 80    
Maximum Humidity 100    
Minimum Humidity 54    
Precipitation  
Precipitation 0.00 in - - ()
Sea Level Pressure  
Sea Level Pressure 29.91 in    
Wind  
Wind Speed 16 mph ()    
Max Wind Speed 30 mph    
Max Gust Speed 40 mph    
Visibility 10.0 miles    
Events Rain , Snow    
Averages and records for this station are not official NWS values.
T = Trace of Precipitation, MM = Missing Value Source: Averaged Metar Reports

Daily Weather History Graph

Daily Weather History Graph

Search for Another Location

Airport:

Trip Planner

Search our weather history database for the weather conditions in past years. The results will help you decide how hot, cold, wet, or windy it might be!

Date:

Astronomy

Feb. 26, 2013 Rise Set
Actual Time 7:05 AM EST 6:10 PM EST
Civil Twilight 6:36 AM EST 6:39 PM EST
Nautical Twilight 6:03 AM EST 7:11 PM EST
Astronomical Twilight 5:30 AM EST 7:44 PM EST
Moon 7:29 PM EST (2/26) 7:04 AM EST (2/26)
Length of Visible Light 12h 02m
Length of Day
11h 05m
Full, 99% of the Moon is Illuminated
Feb 26
Full
Mar 4
Last Quarter
Mar 11
New
Mar 19
First Quarter
Mar 27
Full

Hourly Weather History & Observations

Time (EST) Temp. Windchill Dew Point Humidity Pressure Visibility Wind Dir Wind Speed Gust Speed Precip Events Conditions
12:00 AM 23.0 °F 15.8 °F 17.6 °F 80% 30.19 in 15.0 mi ENE 5.8 mph - N/A   Clear
1:00 AM 23 °F - 18 °F 71% 30.19 in 15 mi ENE 5.8 mph - -  
1:00 AM 23.0 °F 14.7 °F 17.6 °F 80% 30.19 in 15.0 mi ENE 6.9 mph - N/A   Clear
2:00 AM 24.8 °F 15.3 °F 17.6 °F 74% 30.17 in 15.0 mi ENE 9.2 mph - N/A   Partly Cloudy
3:00 AM 24.8 °F 15.3 °F 17.6 °F 74% 30.16 in 15.0 mi ENE 9.2 mph - N/A   Clear
4:00 AM 23.0 °F 12.4 °F 17.6 °F 80% 30.15 in 15.0 mi ENE 10.4 mph - N/A   Partly Cloudy
5:00 AM 24.8 °F 12.4 °F 17.6 °F 74% 30.13 in 15.0 mi ENE 15.0 mph - N/A   Clear
6:00 AM 24.8 °F 12.4 °F 19.4 °F 80% 30.11 in 15.0 mi ENE 15.0 mph 21.9 mph N/A   Scattered Clouds
7:00 AM 27 °F - 21 °F 68% 30.07 in 15 mi ENE 19.6 mph - -  
7:00 AM 26.6 °F 13.4 °F 21.2 °F 80% 30.07 in 15.0 mi ENE 18.4 mph 24.2 mph N/A   Mostly Cloudy
8:00 AM 28.4 °F 16.2 °F 23.0 °F 80% 30.09 in 15.0 mi East 17.3 mph - N/A   Mostly Cloudy
9:00 AM 30.2 °F 18.1 °F 23.0 °F 75% 30.08 in 15.0 mi ENE 18.4 mph - N/A   Overcast
10:00 AM 32.0 °F 20.1 °F 24.8 °F 75% 30.04 in 15.0 mi East 19.6 mph - N/A   Overcast
11:00 AM 33.8 °F 22.5 °F 24.8 °F 70% 29.99 in 15.0 mi East 19.6 mph - N/A   Overcast
12:00 PM 35.6 °F 24.2 °F 24.8 °F 65% 29.96 in 15.0 mi East 21.9 mph 29.9 mph N/A   Overcast
1:00 PM 36 °F - 25 °F 54% 29.92 in 15 mi East 26.5 mph - -   Overcast
1:00 PM 35.6 °F 23.0 °F 24.8 °F 65% 29.92 in 15.0 mi East 27.6 mph 34.5 mph N/A   Overcast
2:00 PM 37.4 °F 25.4 °F 26.6 °F 65% 29.87 in 15.0 mi East 27.6 mph - N/A   Mostly Cloudy
3:00 PM 37.4 °F 26.6 °F 26.6 °F 65% 29.85 in 15.0 mi East 21.9 mph 32.2 mph N/A   Overcast
4:00 PM 35.6 °F 23.7 °F 28.4 °F 75% 29.80 in 12.0 mi East 24.2 mph 35.7 mph N/A Rain Light Rain
4:12 PM 35.6 °F 23.0 °F 28.4 °F 75% 29.80 in 12.0 mi East 27.6 mph 40.3 mph N/A   Overcast
4:42 PM 35.6 °F 23.0 °F 28.4 °F 75% 29.79 in 12.0 mi East 27.6 mph 33.4 mph N/A Rain Light Rain
5:00 PM 35.6 °F 24.0 °F 28.4 °F 75% 29.80 in 10.0 mi East 23.0 mph 38.0 mph N/A Rain Light Rain
6:00 PM 33.8 °F 21.3 °F 30.2 °F 87% 29.79 in 6.0 mi East 24.2 mph 29.9 mph N/A Rain Light Rain
6:15 PM 33.8 °F 21.6 °F 30.2 °F 87% 29.78 in 6.0 mi East 23.0 mph 31.1 mph N/A Rain Light Rain
7:00 PM 34 °F - 31 °F 84% 29.78 in 5 mi East 23.0 mph - -   Overcast
7:00 PM 33.8 °F 21.0 °F 30.2 °F 87% 29.78 in 5.0 mi East 25.3 mph 33.4 mph N/A Rain Light Rain
7:21 PM 33.8 °F 21.3 °F 32.0 °F 93% 29.77 in 4.0 mi East 24.2 mph 31.1 mph N/A Snow Light Snow
7:30 PM 33.8 °F 21.3 °F 30.2 °F 87% 29.77 in 1.5 mi East 24.2 mph - N/A Snow Light Snow
7:48 PM 33.8 °F 21.0 °F 32.0 °F 93% 29.75 in 4.0 mi East 25.3 mph 34.5 mph N/A Rain , Snow Light Rain
8:00 PM 33.8 °F 20.5 °F 32.0 °F 93% 29.75 in 5.0 mi East 27.6 mph 34.5 mph N/A Rain , Snow Light Rain
8:38 PM 33.8 °F 20.8 °F 32.0 °F 93% 29.74 in 5.0 mi East 26.5 mph 39.1 mph N/A Rain , Snow Light Rain
9:00 PM 33.8 °F 21.3 °F 32.0 °F 93% 29.73 in 3.0 mi East 24.2 mph 34.5 mph N/A Rain , Snow Light Rain
9:36 PM 33.8 °F 20.1 °F 32.0 °F 93% 29.71 in 1.5 mi East 29.9 mph 36.8 mph N/A Rain , Snow Light Rain
9:46 PM 33.8 °F 21.3 °F 32.0 °F 93% 29.70 in 0.8 mi East 24.2 mph 35.7 mph N/A Rain , Snow Light Rain
10:00 PM 32.0 °F 18.1 °F 32.0 °F 100% 29.69 in 0.6 mi East 27.6 mph - N/A Snow Light Snow
11:00 PM 32.0 °F 18.9 °F 32.0 °F 100% 29.66 in 1.0 mi East 24.2 mph 31.1 mph N/A Snow Light Snow
11:32 PM 33.8 °F 21.0 °F 32.0 °F 93% 29.65 in 1.5 mi East 25.3 mph 31.1 mph N/A Snow Light Snow